• In Austria
  • List of Countries
  • For 7 days
  • Water Temperature
  • Satellite Maps
  • Weather Map
  • News
  • Weather Widgets
  • user-avatar
    Login

    Hourly Weather Soma Bey

    Today, 24 June, Sunday

    Time Temperature Precipitation Wind Pressure Humidity
    00:00 +36°C° 0 mm 6 mps 744 mmHg 27%
    01:00 +35°C° 0 mm 6 mps 744 mmHg 29%
    02:00 +35°C° 0 mm 6 mps 744 mmHg 31%
    03:00 +34°C° 0 mm 6 mps 744 mmHg 32%
    04:00 +34°C° 0 mm 6 mps 744 mmHg 33%
    05:00 +33°C° 0 mm 6 mps 744 mmHg 34%
    06:00 +34°C° 0 mm 7 mps 745 mmHg 29%
    07:00 +36°C° 0 mm 7 mps 745 mmHg 24%
    08:00 +38°C° 0 mm 8 mps 745 mmHg 19%
    09:00 +39°C° 0 mm 8 mps 745 mmHg 17%
    10:00 +40°C° 0 mm 8 mps 745 mmHg 16%
    11:00 +43°C° 0 mm 8 mps 745 mmHg 15%
    12:00 +43°C° 0 mm 8 mps 744 mmHg 15%
    13:00 +44°C° 0 mm 8 mps 744 mmHg 15%
    14:00 +44°C° 0 mm 8 mps 744 mmHg 15%
    15:00 +44°C° 0 mm 8 mps 743 mmHg 15%
    16:00 +43°C° 0 mm 8 mps 743 mmHg 16%
    17:00 +43°C° 0 mm 8 mps 743 mmHg 16%
    18:00 +41°C° 0 mm 7 mps 743 mmHg 18%
    19:00 +39°C° 0 mm 6 mps 743 mmHg 20%
    20:00 +38°C° 0 mm 6 mps 743 mmHg 21%
    21:00 +37°C° 0 mm 5 mps 743 mmHg 21%
    22:00 +36°C° 0 mm 5 mps 744 mmHg 21%
    23:00 +36°C° 0 mm 5 mps 744 mmHg 21%

    Tomorrow, 25 June, Monday

    Time Temperature Precipitation Wind Pressure Humidity
    00:00 +35°C° 0 mm 5 mps 744 mmHg 22%
    01:00 +35°C° 0 mm 5 mps 744 mmHg 22%
    02:00 +34°C° 0 mm 5 mps 743 mmHg 22%
    03:00 +34°C° 0 mm 5 mps 743 mmHg 24%
    04:00 +33°C° 0 mm 6 mps 743 mmHg 26%
    05:00 +33°C° 0 mm 6 mps 743 mmHg 27%
    06:00 +34°C° 0 mm 6 mps 744 mmHg 26%
    07:00 +35°C° 0 mm 6 mps 744 mmHg 25%
    08:00 +38°C° 0 mm 6 mps 744 mmHg 23%
    09:00 +39°C° 0 mm 6 mps 744 mmHg 21%
    10:00 +40°C° 0 mm 6 mps 744 mmHg 20%
    11:00 +41°C° 0 mm 6 mps 744 mmHg 18%
    12:00 +42°C° 0 mm 6 mps 743 mmHg 17%
    13:00 +44°C° 0 mm 6 mps 743 mmHg 17%
    14:00 +44°C° 0 mm 6 mps 743 mmHg 16%
    15:00 +44°C° 0 mm 6 mps 742 mmHg 17%
    16:00 +42°C° 0 mm 5 mps 742 mmHg 17%
    17:00 +42°C° 0 mm 5 mps 742 mmHg 18%
    18:00 +41°C° 0 mm 5 mps 742 mmHg 20%
    19:00 +40°C° 0 mm 4 mps 743 mmHg 22%
    20:00 +38°C° 0 mm 4 mps 743 mmHg 24%
    21:00 +37°C° 0 mm 4 mps 743 mmHg 24%
    22:00 +37°C° 0 mm 4 mps 743 mmHg 23%
    23:00 +36°C° 0 mm 4 mps 743 mmHg 23%

    Day after tomorrow, 26 June, Tuesday

    Time Temperature Precipitation Wind Pressure Humidity
    00:00 +35°C° 0 mm 4 mps 743 mmHg 23%
    01:00 +35°C° 0 mm 4 mps 743 mmHg 23%
    02:00 +34°C° 0 mm 4 mps 742 mmHg 23%
    03:00 +34°C° 0 mm 5 mps 742 mmHg 26%
    04:00 +33°C° 0 mm 5 mps 742 mmHg 28%
    05:00 +33°C° 0 mm 5 mps 742 mmHg 30%
    06:00 +34°C° 0 mm 5 mps 743 mmHg 27%
    07:00 +35°C° 0 mm 5 mps 743 mmHg 23%
    08:00 +37°C° 0 mm 5 mps 743 mmHg 20%
    09:00 +39°C° 0 mm 5 mps 743 mmHg 18%
    10:00 +41°C° 0 mm 5 mps 743 mmHg 16%
    11:00 +42°C° 0 mm 5 mps 743 mmHg 15%
    12:00 +43°C° 0 mm 5 mps 743 mmHg 15%
    13:00 +43°C° 0 mm 5 mps 743 mmHg 15%
    14:00 +45°C° 0 mm 5 mps 742 mmHg 15%
    15:00 +43°C° 0 mm 5 mps 742 mmHg 16%
    16:00 +43°C° 0 mm 4 mps 742 mmHg 17%
    17:00 +42°C° 0 mm 4 mps 742 mmHg 18%
    18:00 +40°C° 0 mm 3 mps 742 mmHg 20%
    19:00 +39°C° 0 mm 3 mps 742 mmHg 22%
    20:00 +38°C° 0 mm 2 mps 743 mmHg 23%
    21:00 +37°C° 0 mm 2 mps 743 mmHg 24%
    22:00 +37°C° 0 mm 2 mps 743 mmHg 24%
    23:00 +36°C° 0 mm 2 mps 743 mmHg 24%

    27 June, Wednesday

    Time Temperature Precipitation Wind Pressure Humidity
    00:00 +36°C° 0 mm 3 mps 743 mmHg 24%
    01:00 +35°C° 0 mm 3 mps 743 mmHg 25%
    02:00 +35°C° 0 mm 4 mps 743 mmHg 25%
    03:00 +34°C° 0 mm 4 mps 743 mmHg 27%
    04:00 +34°C° 0 mm 4 mps 743 mmHg 29%
    05:00 +33°C° 0 mm 5 mps 743 mmHg 31%
    06:00 +35°C° 0 mm 5 mps 743 mmHg 28%
    07:00 +36°C° 0 mm 5 mps 744 mmHg 26%
    08:00 +39°C° 0 mm 5 mps 744 mmHg 23%
    09:00 +40°C° 0 mm 4 mps 744 mmHg 21%
    10:00 +41°C° 0 mm 4 mps 744 mmHg 19%
    11:00 +43°C° 0 mm 4 mps 744 mmHg 17%
    12:00 +43°C° 0 mm 4 mps 743 mmHg 17%
    13:00 +44°C° 0 mm 4 mps 743 mmHg 16%
    14:00 +44°C° 0 mm 4 mps 743 mmHg 16%
    15:00 +44°C° 0 mm 4 mps 742 mmHg 16%
    16:00 +44°C° 0 mm 3 mps 742 mmHg 16%
    17:00 +43°C° 0 mm 3 mps 742 mmHg 15%
    18:00 +41°C° 0 mm 2 mps 742 mmHg 17%
    19:00 +40°C° 0 mm 2 mps 743 mmHg 18%
    20:00 +39°C° 0 mm 2 mps 743 mmHg 19%
    21:00 +39°C° 0 mm 2 mps 743 mmHg 20%
    22:00 +38°C° 0 mm 2 mps 743 mmHg 20%
    23:00 +38°C° 0 mm 3 mps 743 mmHg 20%

    28 June, Thursday

    Time Temperature Precipitation Wind Pressure Humidity
    00:00 +37°C° 0 mm 3 mps 743 mmHg 20%
    01:00 +37°C° 0 mm 3 mps 743 mmHg 20%
    02:00 +36°C° 0 mm 3 mps 743 mmHg 20%
    03:00 +36°C° 0 mm 3 mps 743 mmHg 19%
    04:00 +35°C° 0 mm 3 mps 743 mmHg 19%
    05:00 +35°C° 0 mm 4 mps 743 mmHg 18%
    06:00 +37°C° 0 mm 4 mps 743 mmHg 16%
    07:00 +40°C° 0 mm 4 mps 744 mmHg 14%
    08:00 +41°C° 0 mm 5 mps 744 mmHg 12%
    09:00 +43°C° 0 mm 5 mps 744 mmHg 11%
    10:00 +45°C° 0 mm 5 mps 743 mmHg 10%
    11:00 +46°C° 0 mm 6 mps 743 mmHg 8%
    12:00 +47°C° 0 mm 6 mps 743 mmHg 8%
    13:00 +47°C° 0 mm 6 mps 742 mmHg 8%
    14:00 +48°C° 0 mm 6 mps 742 mmHg 8%
    15:00 +47°C° 0 mm 6 mps 742 mmHg 9%
    16:00 +46°C° 0 mm 5 mps 742 mmHg 9%
    17:00 +46°C° 0 mm 5 mps 742 mmHg 10%
    18:00 +43°C° 0 mm 4 mps 742 mmHg 11%
    19:00 +42°C° 0 mm 3 mps 742 mmHg 12%
    20:00 +40°C° 0 mm 2 mps 743 mmHg 13%
    21:00 +39°C° 0 mm 3 mps 743 mmHg 14%
    22:00 +39°C° 0 mm 3 mps 743 mmHg 15%
    23:00 +38°C° 0 mm 4 mps 743 mmHg 16%

    29 June, Friday

    Time Temperature Precipitation Wind Pressure Humidity
    00:00 +38°C° 0 mm 4 mps 742 mmHg 17%
    01:00 +37°C° 0 mm 5 mps 742 mmHg 18%
    02:00 +37°C° 0 mm 5 mps 742 mmHg 19%
    03:00 +36°C° 0 mm 6 mps 742 mmHg 23%
    04:00 +35°C° 0 mm 6 mps 742 mmHg 26%
    05:00 +34°C° 0 mm 6 mps 742 mmHg 29%
    06:00 +36°C° 0 mm 7 mps 743 mmHg 26%
    07:00 +39°C° 0 mm 7 mps 743 mmHg 23%
    08:00 +40°C° 0 mm 7 mps 743 mmHg 20%
    09:00 +41°C° 0 mm 7 mps 743 mmHg 19%
    10:00 +44°C° 0 mm 8 mps 743 mmHg 17%
    11:00 +45°C° 0 mm 8 mps 743 mmHg 15%
    12:00 +45°C° 0 mm 8 mps 742 mmHg 15%
    13:00 +46°C° 0 mm 8 mps 742 mmHg 15%
    14:00 +46°C° 0 mm 8 mps 742 mmHg 14%
    15:00 +46°C° 0 mm 7 mps 741 mmHg 15%
    16:00 +45°C° 0 mm 7 mps 741 mmHg 15%
    17:00 +45°C° 0 mm 7 mps 741 mmHg 16%
    18:00 +44°C° 0 mm 6 mps 741 mmHg 18%
    19:00 +42°C° 0 mm 5 mps 741 mmHg 21%
    20:00 +40°C° 0 mm 4 mps 742 mmHg 23%
    21:00 +40°C° 0 mm 4 mps 742 mmHg 23%
    22:00 +38°C° 0 mm 4 mps 742 mmHg 23%
    23:00 +39°C° 0 mm 5 mps 742 mmHg 23%
    Show more